FW7441 Weather Reports


Display with metric or nautical units.
time (UTC)temp
F
wind
direction
speed
MPH
gust
MPH
rain 1hr
in
rain 24hr
in
rain mn
in
humidity
%
barometer
mb
20260906011420 71 65 0.0 1.0 0.00 0.00 0.00 97 1017.1
20260906010915 71 9 1.0 1.0 0.00 0.00 0.00 97 1016.9
20260906010411 71 51 2.0 2.0 0.00 0.00 0.00 97 1016.9
20260906005906 71 312 3.0 5.0 0.00 0.00 0.00 97 1016.8
20260906005405 71 351 2.0 2.0 0.00 0.00 0.00 97 1016.6
20260906004858 71 29 1.0 2.0 0.00 0.00 0.00 96 1016.6
20260906004353 71 161 2.0 2.0 0.00 0.00 0.00 96 1016.6
20260906003848 71 346 2.0 2.0 0.00 0.00 0.00 96 1016.2
20260906003344 71 355 4.0 7.0 0.00 0.00 0.00 96 1016.4
20260906002839 71 54 0.0 0.0 0.00 0.00 0.00 96 1016.3
20260906002338 71 67 2.0 3.0 0.00 0.00 0.00 96 1016.2
20260906001834 71 339 2.0 3.0 0.00 0.00 0.00 96 1016.6
20260906001330 71 24 3.0 3.0 0.00 0.00 0.00 95 1016.5
20260906000825 71 343 2.0 2.0 0.00 0.00 0.00 95 1016.5
20260906000319 71 343 4.0 5.0 0.00 0.00 0.00 95 1016.4
20260905235819 71 5 2.0 3.0 0.00 0.00 0.00 95 1016.3
20260905235314 71 59 2.0 3.0 0.00 0.00 0.00 95 1016.3
20260905234809 71 53 5.0 9.0 0.00 0.00 0.00 96 1016.1
20260905234304 71 25 1.0 2.0 0.00 0.00 0.00 96 1016.2
20260905233759 71 9 0.0 1.0 0.00 0.00 0.00 96 1016.5
20260905233254 71 128 2.0 2.0 0.00 0.00 0.00 96 1016.5
20260905232753 71 11 3.0 5.0 0.00 0.00 0.00 96 1016.6
20260905232249 71 57 8.0 9.0 0.00 0.00 0.00 95 1016.4
20260905231745 71 345 5.0 9.0 0.00 0.00 0.00 95 1016.2
20260905231240 71 33 2.0 3.0 0.00 0.00 0.00 95 1016.3
20260905230736 72 40 3.0 6.0 0.00 0.00 0.00 95 1016.2
20260905230234 72 68 1.0 2.0 0.00 0.00 0.00 94 1016.2
20260905225734 73 73 1.0 2.0 0.00 0.00 0.00 94 1016.3
20260905225229 73 101 3.0 5.0 0.00 0.00 0.00 93 1016.3
20260905224728 74 192 1.0 2.0 0.00 0.00 0.00 92 1015.9
20260905224223 74 36 3.0 5.0 0.00 0.00 0.00 92 1015.9
20260905223720 75 91 2.0 3.0 0.00 0.00 0.00 91 1015.8
20260905223216 75 78 2.0 2.0 0.00 0.00 0.00 91 1015.7
20260905222712 75 40 4.0 6.0 0.00 0.00 0.00 90 1016.1
20260905222211 76 69 1.0 1.0 0.00 0.00 0.00 89 1015.8
20260905221707 76 9 4.0 8.0 0.00 0.00 0.00 89 1015.7
20260905221204 76 104 1.0 1.0 0.00 0.00 0.00 90 1015.8
20260905220659 77 88 1.0 2.0 0.00 0.00 0.00 89 1015.9
20260905220155 77 56 0.0 1.0 0.00 0.00 0.00 88 1016.0
20260905215654 78 84 2.0 3.0 0.00 0.00 0.00 86 1015.6
20260905215150 79 58 2.0 5.0 0.00 0.00 0.00 86 1015.5
20260905214646 78 59 3.0 5.0 0.00 0.00 0.00 86 1015.5
20260905214141 77 31 1.0 1.0 0.00 0.00 0.00 88 1015.3
20260905213636 78 87 4.0 5.0 0.00 0.00 0.00 87 1015.5
20260905213131 80 69 3.0 3.0 0.00 0.00 0.00 84 1015.5
20260905212627 79 348 3.0 5.0 0.00 0.00 0.00 85 1015.2
20260905212126 78 66 4.0 6.0 0.00 0.00 0.00 87 1015.1
20260905211621 78 144 1.0 2.0 0.00 0.00 0.00 89 1015.2
20260905211117 77 121 1.0 1.0 0.00 0.00 0.00 90 1015.2
20260905210613 78 81 1.0 2.0 0.00 0.00 0.00 88 1015.3
20260905210108 80 55 1.0 2.0 0.00 0.00 0.00 85 1015.1
20260905205607 80 56 2.0 2.0 0.00 0.00 0.00 83 1015.1
20260905205106 80 77 2.0 3.0 0.00 0.00 0.00 81 1015.2
20260905204601 80 54 0.0 1.0 0.00 0.00 0.00 82 1015.2
20260905204056 81 344 2.0 3.0 0.00 0.00 0.00 81 1015.2
20260905203556 81 36 1.0 2.0 0.00 0.00 0.00 80 1015.1
20260905203051 81 79 1.0 1.0 0.00 0.00 0.00 80 1015.1
20260905202546 81 38 3.0 3.0 0.00 0.00 0.00 81 1015.1
20260905202042 81 21 3.0 5.0 0.00 0.00 0.00 80 1015.0
20260905201538 80 72 1.0 2.0 0.00 0.00 0.00 83 1015.1
20260905201037 81 78 5.0 6.0 0.00 0.00 0.00 82 1015.1
20260905200532 81 286 1.0 2.0 0.00 0.00 0.00 82 1015.4
20260905200032 80 80 3.0 3.0 0.00 0.00 0.00 83 1015.3
20260905195526 80 47 1.0 3.0 0.00 0.00 0.00 85 1015.2
20260905195022 79 78 2.0 3.0 0.00 0.00 0.00 86 1015.4
20260905194516 79 101 2.0 2.0 0.00 0.00 0.00 87 1015.6
20260905194015 79 122 1.0 2.0 0.00 0.00 0.00 86 1015.7
20260905193510 78 49 2.0 2.0 0.00 0.00 0.00 87 1015.5
20260905193005 78 64 1.0 2.0 0.00 0.00 0.00 87 1015.7
20260905192500 79 97 1.0 1.0 0.00 0.00 0.00 87 1015.6
20260905191956 79 86 0.0 0.0 0.00 0.00 0.00 87 1015.6
20260905191455 78 141 1.0 1.0 0.00 0.00 0.00 88 1015.7
20260905190955 78 17 4.0 5.0 0.00 0.00 0.00 89 1015.6
20260905190453 77 84 1.0 2.0 0.00 0.00 0.00 91 1015.6
20260905185951 77 77 1.0 2.0 0.00 0.00 0.00 91 1016.0
20260905185447 77 81 1.0 1.0 0.00 0.00 0.00 90 1015.9
20260905184945 77 358 0.0 0.0 0.00 0.00 0.00 91 1015.8
20260905184440 76 70 0.0 1.0 0.00 0.00 0.00 91 1015.9
20260905183939 76 354 3.0 3.0 0.00 0.00 0.00 92 1016.0
20260905183433 77 43 4.0 7.0 0.00 0.00 0.00 92 1016.0
20260905182929 77 71 1.0 1.0 0.00 0.00 0.00 92 1016.0
20260905182427 76 79 2.0 3.0 0.00 0.00 0.00 92 1016.0
20260905181923 76 4 4.0 6.0 0.00 0.00 0.00 92 1015.8
20260905181418 76 291 1.0 2.0 0.00 0.00 0.00 92 1015.9
20260905180917 77 77 1.0 1.0 0.00 0.00 0.00 91 1015.9
20260905180412 77 22 2.0 2.0 0.00 0.00 0.00 91 1015.7
20260905175907 77 46 0.0 1.0 0.00 0.00 0.00 92 1015.9
20260905175406 76 117 0.0 0.0 0.00 0.00 0.00 92 1015.7
20260905174901 76 280 1.0 2.0 0.00 0.00 0.00 93 1015.8
20260905174357 75 298 0.0 1.0 0.00 0.00 0.00 94 1015.8
20260905173852 75 346 4.0 5.0 0.00 0.00 0.00 93 1015.6
20260905173349 75 36 0.0 1.0 0.00 0.00 0.00 94 1015.9
20260905172844 75 93 2.0 2.0 0.00 0.00 0.00 94 1015.8
20260905172341 75 80 1.0 1.0 0.00 0.00 0.00 94 1015.9
20260905171838 75 110 1.0 1.0 0.00 0.00 0.00 94 1016.0
20260905171334 75 88 1.0 1.0 0.00 0.00 0.00 94 1015.7
20260905170830 75 354 3.0 5.0 0.00 0.00 0.00 94 1016.0
20260905170326 75 193 1.0 1.0 0.00 0.00 0.00 95 1016.2
20260905165825 75 353 1.0 2.0 0.00 0.00 0.00 95 1016.2
20260905165321 75 65 2.0 3.0 0.00 0.00 0.00 95 1015.9
20260905164820 74 336 3.0 5.0 0.00 0.00 0.00 95 1016.2
20260905164315 74 106 0.0 1.0 0.00 0.00 0.00 96 1016.3
20260905163811 75 88 1.0 1.0 0.00 0.00 0.00 95 1016.1
20260905163307 75 97 3.0 6.0 0.00 0.00 0.00 95 1016.2
20260905162803 75 351 1.0 2.0 0.00 0.00 0.00 95 1015.9
20260905162305 75 296 1.0 2.0 0.00 0.00 0.00 95 1015.9
20260905161757 75 99 3.0 5.0 0.00 0.00 0.00 95 1015.9
20260905161256 75 68 2.0 3.0 0.00 0.00 0.00 95 1016.1
20260905160755 75 19 1.0 2.0 0.00 0.00 0.00 95 1016.0
20260905160249 75 79 4.0 6.0 0.00 0.00 0.00 95 1015.9
20260905155744 75 107 0.0 0.0 0.00 0.00 0.00 95 1016.1
20260905155243 75 88 3.0 3.0 0.00 0.00 0.00 95 1015.8
20260905154737 75 73 1.0 2.0 0.00 0.00 0.00 95 1016.0
20260905154233 75 124 2.0 3.0 0.00 0.00 0.00 96 1015.8
20260905153728 74 91 1.0 2.0 0.00 0.00 0.00 96 1015.8
20260905153224 75 72 3.0 5.0 0.00 0.00 0.00 95 1015.7
20260905152719 75 321 2.0 2.0 0.00 0.00 0.00 95 1015.7
20260905152213 75 347 2.0 3.0 0.00 0.00 0.00 96 1015.6
20260905151713 75 105 3.0 6.0 0.00 0.00 0.00 96 1015.6
20260905151209 75 90 1.0 2.0 0.00 0.00 0.00 96 1015.3
20260905150704 75 14 2.0 2.0 0.00 0.00 0.00 96 1015.2
20260905150203 75 72 0.0 1.0 0.00 0.00 0.00 96 1015.3
20260905145700 75 73 2.0 5.0 0.00 0.00 0.00 95 1015.4
20260905145155 76 11 0.0 1.0 0.00 0.00 0.00 95 1015.4
20260905144655 76 88 2.0 2.0 0.00 0.00 0.00 94 1015.3
20260905144155 77 55 2.0 2.0 0.00 0.00 0.00 94 1015.3
20260905143654 77 131 0.0 1.0 0.00 0.00 0.00 95 1015.1
20260905143149 75 45 5.0 8.0 0.00 0.00 0.00 98 1015.3
20260905142647 74 122 0.0 1.0 0.00 0.00 0.00 99 1015.3
20260905142147 73 40 1.0 2.0 0.00 0.00 0.00 99 1015.3
20260905141642 73 53 1.0 1.0 0.00 0.00 0.00 99 1015.3
20260905141139 72 84 0.0 1.0 0.00 0.00 0.00 99 1015.3
20260905140634 72 254 2.0 2.0 0.00 0.00 0.00 99 1015.0
20260905140133 72 15 3.0 3.0 0.00 0.00 0.00 99 1015.0
20260905135629 72 64 1.0 2.0 0.00 0.00 0.00 99 1015.2
20260905135124 72 56 0.0 2.0 0.00 0.00 0.00 99 1015.1
20260905134618 72 330 2.0 3.0 0.00 0.00 0.00 99 1015.0
20260905134117 72 335 0.0 1.0 0.00 0.00 0.00 99 1014.8
20260905133613 72 69 1.0 2.0 0.00 0.00 0.00 99 1015.0
20260905133113 72 354 0.0 1.0 0.00 0.00 0.00 99 1015.1
20260905132612 72 8 2.0 2.0 0.00 0.00 0.00 99 1015.2
20260905132107 72 91 0.0 0.0 0.00 0.00 0.00 99 1015.4
20260905131603 72 70 1.0 1.0 0.00 0.00 0.00 99 1015.5
20260905131057 72 24 2.0 2.0 0.00 0.00 0.00 99 1015.2
20260905130556 72 43 1.0 1.0 0.00 0.00 0.00 99 1014.9
20260905130052 72 357 2.0 2.0 0.00 0.00 0.00 99 1014.8
20260905125551 72 47 1.0 2.0 0.00 0.00 0.00 99 1014.6
20260905125047 72 59 1.0 1.0 0.00 0.00 0.00 99 1014.7
20260905124543 71 62 1.0 1.0 0.00 0.00 0.00 99 1014.9
20260905124039 71 64 0.0 0.0 0.00 0.00 0.00 99 1014.7
20260905123534 71 343 1.0 1.0 0.00 0.00 0.00 99 1014.6
20260905123031 71 40 1.0 1.0 0.00 0.00 0.00 99 1014.5
20260905122530 71 89 1.0 1.0 0.00 0.00 0.00 99 1014.5
20260905122025 71 335 2.0 2.0 0.00 0.00 0.00 99 1014.4
20260905121521 71 340 3.0 5.0 0.00 0.00 0.00 99 1014.3
20260905121021 71 8 0.0 1.0 0.00 0.00 0.00 99 1014.2
20260905120515 71 336 1.0 2.0 0.00 0.00 0.00 99 1014.1
20260905120010 71 343 1.0 2.0 0.00 0.00 0.00 99 1014.1
20260905115509 71 56 1.0 2.0 0.00 0.00 0.00 99 1014.1
20260905115004 71 330 2.0 2.0 0.00 0.00 0.00 99 1013.9
20260905114503 71 74 0.0 0.0 0.00 0.00 0.00 99 1014.0
20260905114003 71 39 1.0 1.0 0.00 0.00 0.00 99 1013.6
20260905113458 71 338 3.0 3.0 0.00 0.00 0.00 99 1013.7
20260905112953 71 75 2.0 3.0 0.00 0.00 0.00 99 1013.7
20260905112448 71 101 1.0 1.0 0.00 0.00 0.00 99 1013.7
20260905111944 71 70 2.0 3.0 0.00 0.00 0.00 99 1013.5
20260905111444 71 39 1.0 1.0 0.00 0.00 0.00 99 1013.6
20260905110943 71 73 2.0 2.0 0.00 0.00 0.00 99 1013.5
20260905110442 71 42 5.0 6.0 0.00 0.00 0.00 99 1013.5
20260905105937 71 86 1.0 1.0 0.00 0.00 0.00 99 1013.4
20260905105432 71 28 0.0 1.0 0.00 0.00 0.00 99 1013.4
20260905104931 71 66 1.0 1.0 0.00 0.00 0.00 99 1013.4
20260905104427 71 44 0.0 1.0 0.00 0.00 0.00 99 1013.5
20260905103922 71 85 1.0 2.0 0.00 0.00 0.00 99 1013.3
20260905103418 71 28 0.0 1.0 0.00 0.00 0.00 99 1013.5
20260905102914 71 37 0.0 0.0 0.00 0.00 0.00 99 1013.5
20260905102409 71 34 0.0 0.0 0.00 0.00 0.00 99 1013.2
20260905101909 71 16 0.0 0.0 0.00 0.00 0.00 99 1013.3
20260905101407 71 37 0.0 0.0 0.00 0.00 0.00 99 1013.3
20260905100902 72 98 0.0 1.0 0.00 0.00 0.00 99 1013.3
20260905100358 72 49 0.0 0.0 0.00 0.00 0.00 99 1013.5
20260905095857 72 61 1.0 1.0 0.00 0.00 0.00 99 1013.4
20260905095353 72 326 2.0 3.0 0.00 0.00 0.00 99 1013.4
20260905094847 72 355 1.0 1.0 0.00 0.00 0.00 99 1013.4
20260905094343 72 347 0.0 1.0 0.00 0.00 0.00 99 1013.4
20260905093842 72 332 0.0 0.0 0.00 0.00 0.00 99 1013.2
20260905093337 72 8 0.0 1.0 0.00 0.00 0.00 99 1013.2
20260905092833 72 11 1.0 1.0 0.00 0.00 0.00 99 1013.3
20260905092333 72 319 0.0 0.0 0.00 0.00 0.00 99 1013.2
20260905091828 72 353 1.0 2.0 0.00 0.00 0.00 99 1013.2
20260905091328 72 342 0.0 0.0 0.00 0.00 0.00 99 1013.1
20260905090826 72 216 0.0 0.0 0.00 0.00 0.00 99 1013.4
20260905090322 72 221 0.0 0.0 0.00 0.00 0.00 99 1013.0
20260905085822 72 221 0.0 0.0 0.00 0.00 0.00 99 1012.9
20260905085316 72 221 0.0 0.0 0.00 0.00 0.00 99 1013.0
20260905084812 72 221 0.0 0.0 0.00 0.00 0.00 99 1012.6
20260905084311 72 221 0.0 0.0 0.00 0.00 0.00 99 1013.0
20260905083806 72 221 0.0 0.0 0.00 0.00 0.00 99 1012.9
20260905083302 72 221 0.0 0.0 0.00 0.00 0.00 99 1012.9
20260905082757 72 221 0.0 0.0 0.00 0.00 0.00 99 1012.6
20260905082253 72 221 0.0 0.0 0.00 0.00 0.00 99 1012.5
20260905081748 72 235 0.0 0.0 0.00 0.00 0.00 99 1012.6
20260905081243 73 275 0.0 0.0 0.00 0.00 0.00 99 1012.6
20260905080743 73 275 0.0 0.0 0.00 0.00 0.00 99 1013.0
20260905080242 73 275 0.0 0.0 0.00 0.00 0.00 99 1012.9
20260905075741 73 275 0.0 0.0 0.00 0.00 0.00 99 1012.9
20260905075241 73 280 0.0 0.0 0.00 0.00 0.00 99 1013.0
20260905074739 73 280 0.0 0.0 0.00 0.00 0.00 99 1013.0
20260905074236 73 343 0.0 0.0 0.00 0.00 0.00 99 1013.0
20260905073731 73 289 0.0 0.0 0.00 0.00 0.00 99 1012.9
20260905073226 73 288 0.0 0.0 0.00 0.00 0.00 99 1012.9
20260905072726 73 288 0.0 0.0 0.00 0.00 0.00 99 1013.1
20260905072221 73 288 0.0 0.0 0.00 0.00 0.00 99 1012.9
20260905071718 73 288 0.0 0.0 0.00 0.00 0.00 99 1013.0
20260905071214 73 288 0.0 0.0 0.00 0.00 0.00 99 1013.3
20260905070708 73 289 0.0 0.0 0.00 0.00 0.00 99 1013.3
20260905070204 73 289 0.0 0.0 0.00 0.00 0.00 99 1013.2
20260905065703 73 334 0.0 0.0 0.00 0.00 0.00 99 1013.2
20260905065157 73 277 0.0 0.0 0.00 0.00 0.00 99 1013.1
20260905064653 73 277 0.0 0.0 0.00 0.00 0.00 99 1013.1
20260905064148 73 277 0.0 0.0 0.00 0.00 0.00 99 1013.2
20260905063646 73 277 0.0 0.0 0.00 0.00 0.00 99 1013.2
20260905063143 73 277 0.0 0.0 0.00 0.00 0.00 99 1013.3
20260905062639 73 277 0.0 0.0 0.00 0.00 0.00 99 1013.5
20260905062138 73 309 0.0 0.0 0.00 0.00 0.00 99 1013.4
20260905061633 73 309 0.0 0.0 0.00 0.00 0.00 99 1013.4
20260905061132 73 310 0.0 1.0 0.00 0.00 0.00 99 1013.6
20260905060628 73 292 0.0 0.0 0.00 0.00 0.00 99 1013.3
20260905060124 73 292 0.0 0.0 0.00 0.00 0.00 99 1013.4
20260905055622 73 291 0.0 0.0 0.00 0.00 0.00 99 1013.5
20260905055118 73 292 0.0 0.0 0.00 0.00 0.00 99 1013.3
20260905054614 73 291 0.0 0.0 0.00 0.00 0.00 99 1013.6
20260905054109 73 292 0.0 0.0 0.00 0.00 0.00 99 1013.5
20260905053608 73 291 0.0 0.0 0.00 0.00 0.00 99 1013.7
20260905053104 73 292 0.0 0.0 0.00 0.00 0.00 99 1013.8
20260905052603 73 292 0.0 0.0 0.00 0.00 0.00 99 1013.6
20260905052058 73 292 0.0 0.0 0.00 0.00 0.00 99 1013.8
20260905051553 73 292 0.0 0.0 0.00 0.00 0.00 99 1013.6
20260905051050 74 355 0.0 1.0 0.00 0.00 0.00 99 1013.6
20260905050546 74 4 0.0 0.0 0.00 0.00 0.00 99 1013.5
20260905050043 74 4 0.0 0.0 0.00 0.32 0.32 99 1013.5
20260905045537 74 4 0.0 0.0 0.00 0.32 0.32 99 1013.5
20260905045032 74 5 0.0 0.0 0.00 0.32 0.32 99 1013.5
20260905044532 74 5 0.0 0.0 0.00 0.32 0.32 99 1013.4
20260905044027 74 5 0.0 0.0 0.00 0.32 0.32 99 1013.3
20260905043526 74 6 0.0 0.0 0.00 0.32 0.32 99 1013.5
20260905043022 74 6 0.0 0.0 0.00 0.32 0.32 99 1013.9
20260905042520 74 8 0.0 0.0 0.00 0.32 0.32 99 1013.6
20260905042016 74 98 0.0 0.0 0.00 0.32 0.32 99 1013.7
20260905041511 74 59 0.0 0.0 0.00 0.32 0.32 99 1013.6
20260905041007 74 70 0.0 0.0 0.00 0.32 0.32 99 1013.8
20260905040506 74 20 0.0 0.0 0.00 0.32 0.32 99 1013.3
20260905040005 74 358 0.0 0.0 0.00 0.32 0.32 99 1013.5
20260905035500 74 28 0.0 0.0 0.00 0.32 0.32 99 1013.5
20260905034957 74 85 0.0 0.0 0.00 0.32 0.32 99 1013.5
20260905034458 74 79 1.0 2.0 0.00 0.32 0.32 99 1013.6
20260905033956 74 32 0.0 0.0 0.00 0.32 0.32 99 1013.7
20260905033451 75 36 0.0 0.0 0.00 0.32 0.32 99 1013.7
20260905032946 75 1 0.0 1.0 0.00 0.32 0.32 99 1013.6
20260905032441 75 55 0.0 1.0 0.00 0.32 0.32 99 1013.8
20260905031936 75 84 0.0 0.0 0.00 0.32 0.32 99 1013.7
20260905031432 75 117 2.0 2.0 0.00 0.32 0.32 99 1014.0
20260905030927 75 153 1.0 1.0 0.07 0.32 0.32 98 1014.3
20260905030423 75 82 0.0 0.0 0.38 0.32 0.32 98 1013.8
20260905025921 76 178 1.0 1.0 0.73 0.31 0.31 97 1014.1
20260905025417 76 92 0.0 0.0 0.73 0.27 0.27 96 1014.1
20260905024914 77 280 2.0 2.0 0.35 0.19 0.19 95 1014.9
20260905024408 78 269 1.0 1.0 0.12 0.15 0.15 92 1014.4
20260905023904 78 21 1.0 1.0 0.00 0.13 0.13 91 1014.4
20260905023359 78 94 1.0 1.0 0.00 0.13 0.13 91 1014.2
20260905022858 78 77 1.0 1.0 0.00 0.13 0.13 91 1013.9
20260905022354 78 71 2.0 2.0 0.00 0.13 0.13 90 1014.0
20260905021854 78 81 1.0 2.0 0.00 0.13 0.13 90 1014.2
20260905021348 79 66 1.0 2.0 0.00 0.13 0.13 90 1013.8
20260905020844 79 120 0.0 0.0 0.00 0.13 0.13 90 1013.8
20260905020338 79 105 0.0 0.0 0.00 0.13 0.13 89 1013.9
20260905015838 79 68 1.0 1.0 0.00 0.13 0.13 89 1013.8
20260905015337 80 88 2.0 2.0 0.00 0.13 0.13 88 1013.7
20260905014831 80 357 1.0 1.0 0.00 0.13 0.13 89 1013.9
20260905014326 81 69 0.0 1.0 0.00 0.13 0.13 89 1013.9
20260905013821 81 65 0.0 1.0 0.00 0.13 0.13 89 1014.0
20260905013318 82 154 0.0 0.0 0.00 0.13 0.13 89 1013.7
20260905012813 82 59 1.0 2.0 0.00 0.13 0.13 90 1013.5
20260905012308 82 229 0.0 0.0 0.00 0.13 0.13 90 1013.5
20260905011805 82 229 0.0 0.0 0.00 0.13 0.13 90 1013.5